Regional Weather Roundup
Issued by NWS Binghamton, NY

Home | Current Version | Previous Version | Text Only | Print | Product List | Glossary On
Versions: 1 2 3 4 5 6 7 8 9 10 11 12 13 14 15 16 17 18 19 20 21 22 23 24 25 26 27 28 29 30 31 32 33 34 35 36 37 38 39 40 41 42 43 44 45 46 47 48 49 50
000
ASUS41 KBGM 200110
RWRBGM
RWRBGM
BINGHAMTON REGIONAL WEATHER ROUNDUP
NATIONAL WEATHER SERVICE BINGHAMTON NY
800 PM EST FRI DEC 19 2014

Note: "fair" indicates few or no clouds below 12,000 feet with no
significant weather and/or obstructions to visibility.

* = Station(s) that does not report precipitation, such as rain,
snow, etc, also no thunder or fog.

!NYZ009-015>018-022>025-036-037-044>046-055>057-062-200200
...CENTRAL NEW YORK...

CITY           SKY/WX    TMP DP  RH WIND       PRES   REMARKS
BINGHAMTON     CLOUDY    23  19  85 N12       30.13S WCI  12
CORTLAND       CLOUDY    27  23  86 W7        30.20R WCI  19
DANSVILLE      CLOUDY    28  20  71 NW6       30.23F WCI  22
ELMIRA         CLOUDY    29  21  72 NW6       30.19F WCI  23
ITHACA         CLOUDY    25  21  84 N7        30.20S WCI  17
HAMILTON       CLOUDY    27  21  80 NW6       30.17R WCI  20
MONTICELLO     CLOUDY    25  19  80 NW10G17   30.12R WCI  15
NORWICH        CLOUDY    25  21  86 N6        30.18S WCI  18
ONEONTA        CLOUDY    21  21 100 CALM      30.11S
PENN YAN       CLOUDY    28  20  71 W5        30.20F WCI  23
ROME           CLOUDY    25  20  81 NW10      30.23R WCI  15
SIDNEY         CLOUDY    27  25  93 NW3       30.17S
SYRACUSE       FLURRIES  26  21  81 NW3       30.23R
$$

!PAZ038>040-043-044-047-048-072-200200
...NORTHEAST PENNSYLVANIA...

CITY           SKY/WX    TMP DP  RH WIND       PRES   REMARKS
HAZLETON       CLOUDY    28  21  74 NW14      30.13F WCI  17
SCRANTON       CLOUDY    30  21  69 N8        30.16F WCI  22
TOWANDA*       MOCLDY    30  19  64 N3        30.20F
$$
&&
KEY
WCI = WIND CHILL INDEX
VSB = VISIBILITY
HX  = HEAT INDEX
$$



USA.gov is the U.S. government's official web portal to all federal, state and local government web resources and services.